Voltar ao catálogo

STARLINK-30443

AtivoComunicaçõesVLEO
NORAD 57894·PAYLOAD·🇺🇸 United States

Lançado Sep 20, 2023 de Cape Canaveral Space Force Station

Loading…

Próximas Passagens (próximas 24 horas)

TLE

AtualizadoSource: CelesTrak SupGP

Época: Sep 14, 2026, 20:45 UTC

1 57894C 23146D   26257.86506944 -.00028615  00000+0 -10365-2 0  2570
2 57894  43.0021 325.7647 0001300 267.9320 287.9805 15.27591382    15

Acompanhe STARLINK-30443 em tempo real com AllMySat

Download on the App Store